Погода в Кореличах

Беларусь     53°34′14″N   26°08′21″E
темп.,
°C
ветер,
м/с
пор.,
м/с
влажн.,
%
обл.,
%
осадки,
мм/ч
давл.,
гПа
погр.,
м
16 сентября, чт
чт1600:00+12всв2266100 0.0 101956
03:00+12в3661100 0.0 1019207
06:00+11в4863100 0.0 1019249
09:00+11вюв4864100 0.0 1019292
12:00+13юв5858100 0.0 1019443
15:00+17юв5653100 0.0 1017767
18:00+12вюв4985100 1.1 1016300
21:00+12вюв61395100 6.1 1014447
17 сентября, пт
пт1700:00+12вюв61294100 7.0 1013609
03:00+12вюв61096100 12.8 1012469
06:00+11в5997100 1.3 1011357
09:00+11в5997100 1.4 1011391
12:00+10в5996100 0.4 1011444
15:00+10всв61194100 0.5 1012508
18:00+9всв61294100 0.2 1012585
21:00+8всв71494100 0.9 1012642
18 сентября, сб
сб1800:00+8всв71593100 2.5 1012704
03:00+8всв71594100 9.0 1011707
06:00+7всв71595100 8.6 1011696
09:00+6всв81695100 20.8 1010724
12:00+6всв71595100 10.2 1011716
15:00+6всв71494100 14.3 1011776
18:00+7всв71495100 6.5 1011773
21:00+7всв71495100 10.7 1011741
19 сентября, вс
вс1900:00+7всв71394100 2.2 1011742
03:00+6св61194100 3.1 1011629
06:00+6св51195100 2.0 1011648
09:00+6ссв51094100 2.8 1012683
12:00+6ссв51095100 1.2 1012655
15:00+6с61094100 1.8 1013976
18:00+6ссв81293100 1.6 1013924
21:00+4ссв71397100 1.8 1015778
20 сентября, пн
пн2000:00+4ссв71396100 0.1 1015902
03:00+4ссв81397100 0.6 1015894
06:00+4ссв81497100 1.1 1016825
09:00+4ссв81497100 2.4 1017854
12:00+4ссв71392100 0.1 1018902
15:00+5ссв71289100 0.1 1019969
18:00+6ссв61387100 0.2 10201088
21:00+7ссв5137591 0.2 1021590